Regional Weather Roundup
Issued by NWS

Home | Current Version | Previous Version | Text Only | Print | Product List | Glossary On
Versions: 1 2 3 4 5 6 7 8 9 10 11 12 13 14 15 16 17 18 19 20 21 22 23 24 25 26 27 28 29 30 31 32 33 34 35 36 37 38 39 40 41 42 43 44 45 46 47 48 49 50
000
ASUS44 KFWD 290815
RWRTX
NORTH TEXAS HOURLY WEATHER ROUNDUP
NATIONAL WEATHER SERVICE FORT WORTH TX
300 AM CDT TUE JUL 29 2014

NOTE: "FAIR" INDICATES FEW OR NO CLOUDS BELOW 12,000 FEET WITH NO
SIGNIFICANT WEATHER AND/OR OBSTRUCTIONS TO VISIBILITY.

TXZ118-119-290900-
DALLAS/FORT WORTH METROPLEX

CITY           SKY/WX    TMP DP  RH WIND       PRES   REMARKS
DFW AIRPORT    MOCLDY    79  61  53 NE6       30.10S
DALLAS LOVE    MOCLDY    79  59  50 VRB3      30.10S
FTW MEACHAM    CLOUDY    80  62  54 NE7       30.10F
DAL-EXECUTIVE  CLOUDY    81  59  47 NE8       30.10S
FTW-ALLIANCE   CLOUDY    75  64  68 NE5       30.11S
FTW-NAS-JRB    CLOUDY    81  60  48 NE3       30.14F
FTW-SPINKS     MOCLDY    76  64  66 CALM      30.12S
ARLINGTON      MOCLDY    81  58  45 N8        30.10F
GRAND PRAIRIE  PTCLDY    80  58  47 N5        30.11F
ADDISON        PTCLDY    78  58  51 NE7       30.13R
MESQUITE       MOCLDY    74  59  61 N5        30.10S
LANCASTER      MOCLDY    77  58  52 N3        30.10F
$$

TXZ091>094-102>105-117-120-121-131>134-290900-
NORTH CENTRAL TEXAS

CITY           SKY/WX    TMP DP  RH WIND       PRES   REMARKS
SHRMAN/DENISON PTCLDY    72  65  78 CALM      30.14S
GAINESVILLE    PTCLDY    69  64  83 N6        30.15F
BOWIE          MOCLDY    71  65  82 NE3       30.15S
BRIDGEPORT     MOCLDY    72  64  77 CALM      30.15S
DECATUR        PTCLDY    72  63  72 NE3       30.14S
DENTON         MOCLDY    69  64  84 N3        30.12S
MCKINNEY       CLEAR     69  64  84 CALM      30.11S
ROCKWALL       PTCLDY    73  62  68 NE6       30.09F
TERRELL        PTCLDY    76  61  59 NE5       30.10S
WAXAHACHIE     CLOUDY    77  57  49 NE6       30.11F
CLEBURNE       PTCLDY    79  64  61 NE5       30.13S
GRANBURY       PTCLDY    78  63  60 CALM      30.12F
$$

TXZ083>090-098>101-113>116-127>130-139>142-154-155-290900-
WESTERN NORTH TEXAS

CITY           SKY/WX    TMP DP  RH WIND       PRES   REMARKS
WICHITA FALLS  CLOUDY    72  69  90 N3        30.14S
WF-KICKAPOO    CLOUDY    73  69  85 N3        30.15S
VERNON         MOCLDY    74  69  86 N3        30.17F
ABILENE          N/A    N/A N/A N/A MISG      30.16R
ABILENE-DYESS  CLEAR     75  59  57 E3        30.15R
BRECKENRIDGE   PTCLDY    76  63  63 CALM      30.14R
GRAHAM         MOCLDY    72  64  76 CALM      30.13R
MINERAL WELLS  MOCLDY    75  62  64 CALM      30.11S
STEPHENVILLE   PTCLDY    74  62  66 CALM      30.16S
COMANCHE       CLEAR     72  63  72 CALM      30.14S
BROWNWOOD      PTCLDY    73  64  73 CALM      30.14S
COLEMAN        CLEAR     73  61  66 NE5       30.15S
BRADY          CLEAR     75  66  73 E8        30.14S
$$

TXZ143>147-156>162-174-175-290900-
CENTRAL TEXAS

CITY           SKY/WX    TMP DP  RH WIND       PRES   REMARKS
WACO           CLEAR     74  71  91 CALM      30.10S
WACO-MCGREGOR  CLEAR     73  68  83 CALM      30.12S
HILLSBORO      PTCLDY    75  61  60 NE7       30.10S
CORSICANA      PTCLDY    73  68  84 N5        30.10S
MEXIA          CLEAR     73  71  94 CALM      30.09S
HEARNE         CLEAR    N/A N/A N/A CALM      30.08F
CAMERON        CLEAR     75  72  88 NE3       30.08F
TEMPLE         CLEAR     75  66  73 N3        30.11S
KILLEEN        PTCLDY    79  70  73 NE7       30.11S
KILLEEN-SKYLRK CLEAR     75  66  73 NE5       30.11S
FORT HOOD      PTCLDY    78  69  73 CALM      30.11S
GATESVILLE     CLEAR     75  70  83 CALM      30.13F
HAMILTON       CLEAR     75  69  80 E3        30.14S
LAMPASAS       MOCLDY    76  70  84 NE3       30.11F
$$

TXZ095>097-106>112-122>126-135>138-148>153-164>167-290900-
EAST TEXAS

CITY           SKY/WX    TMP DP  RH WIND       PRES   REMARKS
PARIS          MOCLDY    72  61  68 N8        30.12S
SULPHUR SPRNGS MOCLDY    74  64  72 N3        30.12S
CLARKSVILLE    MOCLDY    73  65  75 NW3       30.10S
MOUNT PLEASANT CLOUDY    74  63  69 CALM      30.11S
GILMER         CLOUDY    75  68  78 N3        30.10F
MINEOLA        MOCLDY    73  66  78 CALM      30.10F
TYLER          MOCLDY    76  68  76 N5        30.08F
LONGVIEW       MOCLDY    75  71  87 N3        30.07F
MARSHALL       MOCLDY    76  71  84 N3        30.09S
ATHENS         MOCLDY    73  68  83 CALM      30.08S
JACKSONVILLE   MOCLDY    75  71  89 N3        30.10S
HENDERSON      MOCLDY    74  72  94 CALM      30.08F
NACOGDOCHES    PTCLDY    72  70  94 NW3       30.07S
LUFKIN         MOCLDY    76  72  87 NW3       30.06F
$$

SUPPLEMENTAL OBSERVATIONS (CENTRAL)

CITY           SKY/WX    TMP DP  RH WIND       PRES   REMARKS
LAKE TEXOMA      N/A     75  66  73 CALM        N/A
CADDO GRASSLND   N/A     70  66  88 CALM        N/A
PAT MAYSE LAKE   N/A     70  63  78 N2          N/A
GREENVILLE       N/A     72  61  68 N5          N/A
CEDAR HILL       N/A     81  59  47 NE9         N/A
PALESTINE        N/A     73  72  94 CALM        N/A
LAKE LIMESTONE   N/A     73  72  94 N2          N/A
MCGREGOR         N/A     73  68  83 NE2         N/A
TEMPLE           N/A     75  68  78 NE6         N/A
$$

SUPPLEMENTAL OBSERVATIONS (WEST)

CITY           SKY/WX    TMP DP  RH WIND       PRES   REMARKS
MILLERS CREEK    N/A    N/A N/A N/A NE5         N/A
POSSUM KINGDOM   N/A     75  63  64 E3          N/A
LBJ GRASSLAND    N/A    N/A N/A N/A NE5         N/A
GRANBURY         N/A     77  63  61 E1          N/A
HAMBY            N/A    N/A N/A N/A E5          N/A
IVIE RESERVOIR   N/A     75  64  69 E7          N/A
COLORADO BEND    N/A     75  66  73 E3          N/A
$$

SUPPLEMENTAL OBSERVATIONS (EAST)

CITY           SKY/WX    TMP DP  RH WIND       PRES   REMARKS
CLARKSVILLE      N/A     72  63  73 NW2         N/A
TEXARKANA        N/A     66  63  88 CALM        N/A
LINDEN           N/A     73  64  73 CALM        N/A
GILMER           N/A     75  66  73 N2          N/A
HENDERSON        N/A     73  70  88 CALM        N/A
LUFKIN           N/A     73  72  94 MISG        N/A
N SABINE NF      N/A     72  70  94 MISG        N/A
S SABINE NF      N/A     73  72  94 CALM        N/A
$$

SUPPLEMENTAL OBSERVATIONS ARE A COLLECTION OF AUTOMATED INSTRUMENTS
THAT ARE MAINTAINED BY A VARIETY OF FEDERAL AND STATE AGENCIES.
CERTAIN ELEMENTS...SUCH AS HUMIDITY VALUES AND SUSTAINED WIND
SPEEDS...MAY BE APPROXIMATED.



USA.gov is the U.S. government's official web portal to all federal, state and local government web resources and services.